Location: San Antonio
(29.4240°N, 98.4930°W)
Time: 16:36:33
(UTC-05:00)

BlueWalker 3 - Pass Details

Date: 23 June 2024
Orbit: 480 x 492 km, 53.2° (Epoch: 11 July)

Event Time Altitude Azimuth Distance (km) Brightness Sun altitude
Rises 03:57:04 0° 329° (NNW) 2,533 5.8 -27.3°
Reaches altitude 10° 03:59:26 10° 341° (NNW) 1,652 4.9 -26.9°
Maximum altitude 04:02:43 29° 43° (NE) 913 3.8 -26.5°
Drops below altitude 10° 04:05:59 10° 105° (ESE) 1,650 4.8 -26.1°
Sets 04:08:20 0° 116° (ESE) 2,528 5.7 -25.8°
